Skip Navigation Links weather.gov 
NOAA logo-Select to go to the NOAA homepage NDBC Title GraphicClick to go to NDBC home page   Select to go to the NWS homepage
Home About Us Contact Us
 
 
    
    Station List

 Data Access
    Mobile Access
    Classic Maps
         Recent
         DART®
    Obs Search
    Ship Obs Report
    BuoyCAMs
    TAO
    DODS
    OceanSITES
    HF Radar
    OSMC
    Dial-A-Buoy
    RSS Feeds Image indicating link to RSS feed access page
    Web Widget
    Email Access
    Web Data Guide
    Maintenance Schedule
    Station Status Report

 Program Info
    TAO
    DART®
    VOS
    IOOS®

 Publications
    NDBC PEA
    NDBC FONSI
    NDBC DQC Handbook

 FAQ
 Visitor Information
 
USA.gov is the U.S. government's official web portal to all federal, state and local government web resources and services.

The NDBC website is now available only via HTTPS. Please update your bookmarks and/or links to use https://www.ndbc.noaa.gov/.

Station ROBN4 - 8530973 - Robbins Reef, NJ Image indicating link to RSS feed of recent meteorological observations for station ROBN4

Owned and maintained by NOAA's National Ocean Service
C-MAN Station
40.657 N 74.065 W (40°39'26" N 74°3'55" W)

Site elevation: 0 m above mean sea level
Air temp height: 20.8 m above site elevation
Anemometer height: 21 m above site elevation

Latest NWS Marine Forecast

Search And Rescue (SAR) Data

Meteorological Observations from Nearby Stations and Ships Image indicating link to RSS feed of recent meteorological observations near station ROBN4

Regional HF Radar Surface Current Observations

Large icon indicates selected station.
yellow diamond Stations with recent data
red diamond Stations with no data in last 8 hours
     (24 hours for tsunami stations)


Conditions at ROBN4 as of
(5:30 pm EDT)
2130 GMT on 07/22/2018:
     

Click on the graph icon in the table below to see a time series plot of the last five days of that observation.

5-day plot - Wind Direction Wind Direction (WDIR): SE ( 130 deg true )
5-day plot - Wind Speed Wind Speed (WSPD): 20 kts
5-day plot - Wind Gust Wind Gust (GST): 25 kts
5-day plot - Atmospheric Pressure Atmospheric Pressure (PRES): 29.97 in
5-day plot - Air Temperature Air Temperature (ATMP): 75.7 °F
5-day plot - Wind Speed at 10 Meters Wind Speed at 10 meters (WSPD10M): 19 kts
5-day plot - Wind Speed at 10 Meters Wind Speed at 20 meters (WSPD20M): 19 kts
5-day plot - Wind Speed, Wind Gust and Atmospheric Pressure Combined plot of Wind Speed, Gust, and Air Pressure
NOS Water Level Observation Network Water Level
Previous observations
5-day plot - Wind Direction 5-day plot - Wind Speed 5-day plot - Wind Gust 5-day plot - Wave Height 5-day plot - Dominant Wave Period 5-day plot - Average Period 5-day plot - Mean Wave Direction 5-day plot - Atmospheric Pressure 5-day plot - Pressure Tendency 5-day plot - Air Temperature 5-day plot - Water Temperature 5-day plot - Dew Point 5-day plot - Salinity 5-day plot - Visibility 5-day plot - Tide (above MLLW)
MM DD TIME
(EDT)
WDIR WSPD
kts
GST
kts
WVHT
ft
DPD
sec
APD
sec
MWD PRES
in
PTDY
in
ATMP
°F
WTMP
°F
DEWP
°F
SAL
psu
VIS
nmi
TIDE
ft
0722 5:24 pm SE 22 27----29.96- 75.9-----
0722 5:18 pm SE 22 30----29.97- 75.9-----
0722 5:12 pm SE 20 26----29.97- 76.3-----
0722 5:06 pm SE 22 26----29.97- 76.3-----
0722 5:00 pm SE 21 25----29.97+0.00 76.3-----
0722 4:54 pm SE 21 24----29.97- 76.5-----
0722 4:48 pm SE 21 25----29.97- 76.8-----
0722 4:42 pm SE 20 24----29.97- 76.6-----
0722 4:36 pm SE 19 23----29.96- 76.5-----
0722 4:30 pm SE 18 23----29.96- 76.6-----
0722 4:24 pm SE 19 24----29.96- 76.5-----
0722 4:18 pm SE 17 24----29.96- 76.5-----
0722 4:12 pm SE 21 25----29.96- 76.6-----
0722 4:06 pm SE 19 23----29.96- 76.6-----
0722 4:00 pm SE 23 25----29.95-0.01 77.0-----
0722 3:54 pm SE 19 24----29.95- 77.5-----
0722 3:48 pm SE 21 24----29.95- 77.2-----
0722 3:42 pm SE 20 25----29.95- 77.2-----
0722 3:36 pm SE 19 22----29.96- 77.2-----
0722 3:30 pm SE 19 23----29.96- 77.2-----
0722 3:24 pm SE 19 24----29.96- 77.5-----
0722 3:18 pm SE 20 25----29.96- 77.5-----
0722 3:12 pm SE 22 26----29.96- 77.2-----
0722 3:06 pm SE 17 23----29.96- 77.4-----
0722 3:00 pm SE 21 24----29.96+0.00 77.2-----
0722 2:54 pm SE 20 23----29.96- 77.0-----
0722 2:48 pm SE 18 21----29.97- 76.8-----
0722 2:42 pm SE 19 25----29.96- 76.6-----
0722 2:36 pm SE 19 22----29.96- 76.8-----
0722 2:30 pm SE 17 21----29.97- 76.5-----
0722 2:24 pm SE 18 23----29.97- 76.6-----
0722 2:18 pmSSE 19 24----29.96- 76.6-----
0722 2:12 pm SE 18 24----29.97- 76.5-----
0722 2:06 pmSSE 21 25----29.97- 76.6-----
0722 2:00 pmSSE 22 24----29.97+0.03 76.3-----
0722 1:54 pmSSE 20 24----29.97- 76.5-----
0722 1:48 pmSSE 20 23----29.97- 76.5-----
0722 1:42 pmSSE 20 23----29.98- 76.3-----
0722 1:36 pmSSE 16 22----29.98- 75.9-----
0722 1:30 pmSSE 20 26----29.98- 76.1-----
0722 1:24 pmSSE 20 24----29.97- 76.1-----
0722 1:18 pmSSE 18 24----29.97- 76.1-----
0722 1:12 pmSSE 19 25----29.97- 76.1-----
0722 1:06 pmSSE 19 23----29.97- 75.9-----
0722 1:00 pmSSE 20 26----29.97+0.06 75.6-----
072212:54 pmSSE 22 26----29.97- 75.4-----
072212:48 pmSSE 21 25----29.97- 75.4-----
072212:42 pmSSE 20 23----29.97- 75.0-----
072212:36 pmSSE 22 24----29.97- 74.8-----
072212:30 pmSSE 21 24----29.97- 74.7-----
072212:24 pmSSE 19 21----29.97- 74.7-----
072212:18 pmSSE 18 22----29.97- 74.5-----
072212:12 pmSSE 19 20----29.97- 74.5-----
072212:06 pmSSE 18 21----29.96- 73.9-----
072212:00 pmSSE 19 21----29.96+0.08 73.9-----
072211:54 amSSE 17 20----29.96- 73.8-----
072211:48 am SE 18 21----29.96- 73.9-----
072211:42 amSSE 18 20----29.95- 74.3-----
072211:36 amSSE 12 17----29.96- 74.1-----
072211:30 amSSE 15 19----29.95- 73.8-----
072211:24 amSSE 17 19----29.95- 74.1-----
072211:18 amSSE 16 18----29.95- 73.9-----
072211:12 amSSE 16 17----29.95- 73.9-----
072211:06 amSSE 15 16----29.95- 73.8-----
072211:00 amSSE 16 18----29.94+0.09 73.8-----
072210:54 amSSE 16 17----29.94- 73.8-----
072210:48 amSSE 15 17----29.94- 73.6-----
072210:42 amSSE 15 16----29.93- 73.6-----
072210:36 amSSE 13 15----29.93- 73.4-----
072210:30 amSSE 13 15----29.93- 73.6-----
072210:24 amSSE 14 16----29.93- 73.6-----
072210:18 amSSE 15 17----29.92- 73.4-----
072210:12 amSSE 15 17----29.92- 73.4-----
072210:06 am S 16 18----29.92- 73.4-----
072210:00 am S 15 19----29.91+0.09 73.2-----
0722 9:54 am S 15 18----29.91- 73.0-----
0722 9:48 am S 14 17----29.91-------
0722 9:42 amSSE 16 18----29.90- 72.9-----
0722 9:36 amSSE 17 20----29.90- 72.9-----
0722 9:30 am S 18 22----29.90- 72.7-----
0722 9:24 am S 18 21----29.89- 72.7-----
0722 9:18 am S 17 19----29.89- 72.7-----
0722 9:12 am S 16 19----29.89- 72.5-----
0722 9:06 am S 16 19----29.89- 72.5-----
0722 9:00 am S 16 19----29.88+0.09------
0722 8:54 am S 16 18----29.88- 72.1-----
0722 8:48 am S 16 19----29.88- 72.3-----
0722 8:42 amSSE 17 21----29.88- 71.8-----
0722 8:36 amSSE 18 21----29.87- 71.8-----
0722 8:30 amSSE 19 23----29.87- 71.8-----
0722 8:24 am S 19 22----29.87- 72.1-----
0722 8:18 amSSE 21 25----29.86- 72.7-----
0722 8:12 am S 24 27----29.86- 72.9-----
0722 8:06 amSSE 23 26----29.86- 72.9-----
0722 8:00 amSSE 21 24----29.86- 73.0-----
0722 7:54 amSSE 22 25----29.85- 73.2-----
0722 7:48 amSSE 23 28----29.85-------
0722 7:42 amSSE 21 26----29.85- 73.0-----
0722 7:36 amSSE 20 25----29.84- 72.5-----
0722 7:30 amSSE 21 28----29.84- 72.7-----
0722 7:24 amSSE 20 28----29.84- 73.0-----
0722 7:18 amSSE 24 26----29.83- 73.2-----
0722 7:12 amSSE 22 26----29.83- 73.2-----
0722 7:06 amSSE 22 27----29.83- 73.0-----
0722 7:00 amSSE 20 28----29.83+0.05 73.0-----
0722 6:54 amSSE 24 31----29.82- 73.8-----
0722 6:48 amSSE 26 30----29.82- 73.8-----
0722 6:42 amSSE 25 29----29.82- 73.8-----
0722 6:36 amSSE 21 25----29.82- 73.8-----
0722 6:30 amSSE 27 30----29.81- 74.1-----
0722 6:24 amSSE 22 26----29.81- 74.1-----
0722 6:18 amSSE 23 27----29.80- 74.1-----
0722 6:12 amSSE 24 29----29.80- 74.1-----
0722 6:06 amSSE 23 28----29.80- 74.5-----
0722 6:00 amSSE 25 29----29.80+0.03 74.5-----
0722 5:54 amSSE 25 30----29.80- 74.3-----
0722 5:48 amSSE 24 28----29.80- 74.3-----
0722 5:42 amSSE 22 28----29.80- 74.5-----
0722 5:36 amSSE 25 31----29.79- 74.7-----
0722 5:30 amSSE 24 32----29.79- 74.5-----
0722 5:24 am SE 23 29----29.79- 74.5-----
0722 5:18 am SE 21 26----29.79- 74.7-----
0722 5:12 am SE 21 27----29.79- 74.8-----
0722 5:06 am SE 22 28----29.79- 74.8-----
0722 5:00 am SE 22 29------------
0722 4:54 am SE 24 32----29.78- 75.0-----
0722 4:48 am SE 25 30----29.78- 75.0-----
0722 4:42 am SE 26 31----29.78- 75.0-----
0722 4:36 am SE 26 34----29.78- 74.8-----
0722 4:30 amESE 26 33----29.77- 75.0-----
0722 4:24 amESE 25 31----29.77- 75.0-----
0722 4:18 amESE 26 36----29.77- 75.2-----
0722 4:12 am SE 31 39----29.77- 75.2-----
0722 4:06 amESE 31 35----29.77- 75.2-----
0722 4:00 am SE 29 37----29.77-0.08 75.2-----
0722 3:54 amESE 30 39----29.78- 74.7-----
0722 3:48 amESE 27 36----29.78- 74.1-----
0722 3:42 am SE 29 38----29.78- 74.7-----
0722 3:36 am SE 23 37----29.78- 75.2-----
0722 3:30 amESE 31 38----29.78- 74.8-----
0722 3:24 amESE 32 40----29.78- 73.9-----
0722 3:18 amESE 31 41----29.78- 73.4-----
0722 3:12 amESE 28 34----29.78- 73.0-----
0722 3:06 amESE 31 40----29.77- 72.5-----
0722 3:00 amESE 33 45----29.77-0.11 72.7-----
0722 2:54 amESE 29 43----29.77- 72.3-----
0722 2:48 am E 31 41----29.77- 72.3-----
0722 2:42 am E 32 38----29.78- 72.1-----
0722 2:36 am E 31 48----29.77- 72.0-----
0722 2:24 am E 34 44----29.78- 72.1-----
0722 2:18 am E 29 44----29.78- 72.1-----
0722 2:12 am E 33 41----29.79- 73.9-----
0722 2:06 am E 26 37----29.79- 74.1-----
0722 2:00 am E 32 38----29.79-0.10 73.9-----
0722 1:54 am E 31 38----29.79- 72.9-----
0722 1:48 am E 31 36----29.80- 72.3-----
0722 1:42 am E 31 38----29.82-------
0722 1:36 am E 31 41----29.82-------
0722 1:30 am E 27 33----29.83- 73.4-----
0722 1:24 am E 29 35----29.83- 73.4-----
0722 1:18 am E 27 32----29.84-------
0722 1:12 am E 26 31----29.84- 73.0-----
0722 1:06 am E 25 30----29.85- 73.0-----
0722 1:00 am E 26 32----29.85-0.08 73.0-----
072212:54 am E 26 32----29.85- 72.7-----
072212:48 am E 25 31----29.86- 72.7-----
072212:42 am E 24 31----29.86- 72.7-----
072212:36 am E 26 33----29.87- 72.5-----
072212:30 am E 27 32----29.87- 72.5-----
072212:24 am E 25 31----29.87- 72.5-----
072212:18 am E 24 33----29.87- 72.3-----
072212:12 am E 26 32----29.88- 72.3-----
072212:06 am E 23 29----29.88- 72.3-----
072212:00 am E 24 30----29.88-0.07 72.1-----
072111:54 pm E 22 28----29.88- 72.0-----
072111:48 pm E 24 27----29.88- 71.2-----
072111:42 pm E 20 25----29.88- 70.2-----
072111:36 pm E 19 23----29.88- 70.0-----
072111:30 pmENE 20 24----29.89- 70.0-----
072111:24 pm E 22 26----29.89- 69.8-----
072111:18 pm E 24 29----29.89- 69.4-----
072111:12 pmENE 24 30----29.89- 69.3-----
072111:06 pmENE 22 25----29.89- 68.9-----
072111:00 pmENE 21 24----29.90-0.07 68.7-----
072110:54 pm E 20 24----29.90- 68.5-----
072110:48 pmENE 22 25----29.90- 68.7-----
072110:42 pmENE 23 28----29.91- 68.2-----
072110:36 pmENE 21 26----29.91- 68.0-----
072110:30 pmENE 21 26----29.91- 67.3-----
072110:24 pmENE 20 22----29.92- 67.1-----
072110:18 pmENE 17 22----29.92- 66.6-----
072110:12 pmENE 19 23----29.93- 66.7-----
072110:06 pmENE 20 23----29.92- 66.6-----
072110:00 pmENE 20 24----29.93-0.06 66.4-----
0721 9:54 pmENE 19 22----29.93- 66.2-----
0721 9:48 pmENE 18 22----29.94- 65.8-----
0721 9:42 pm NE 18 20----29.94- 66.6-----
0721 9:36 pmENE 19 24----29.94- 66.4-----
0721 9:30 pmENE 20 23----29.94- 66.0-----
0721 9:24 pmENE 20 22----29.95- 66.0-----
0721 9:18 pmENE 18 23----29.95- 66.2-----
0721 9:12 pmENE 19 22----29.94- 66.4-----
0721 9:06 pmENE 18 23----29.95- 66.7-----
0721 9:00 pmENE 19 21----29.95-0.04 66.7-----
0721 8:54 pmENE 17 19----29.96- 66.9-----
0721 8:48 pmENE 15 18----29.96- 67.1-----
0721 8:42 pmENE 12 15----29.96- 67.3-----
0721 8:36 pmENE 15 18----29.96- 67.5-----
0721 8:30 pmENE 18 21----29.96- 68.0-----
0721 8:24 pm E 19 23----29.96- 68.4-----
0721 8:18 pm E 18 24----29.97- 68.4-----
0721 8:12 pm E 12 15----29.97- 68.4-----
0721 8:06 pmENE 12 16----29.97- 68.7-----
0721 8:00 pmENE 13 17----29.97-0.04 68.9-----
0721 7:54 pmENE 15 21----29.97- 69.3-----
0721 7:48 pmENE 17 22----29.97- 70.0-----
0721 7:42 pmENE 17 22----29.98- 70.0-----
0721 7:36 pmENE 15 19----29.98- 70.5-----
0721 7:30 pmENE 17 21----29.98- 71.1-----
0721 7:24 pmENE 14 17----29.98- 71.6-----
0721 7:18 pmENE 15 18------------
0721 7:12 pm E 15 20----29.98- 72.1-----
0721 7:06 pm E 18 20----29.99- 72.7-----
0721 7:00 pm E 18 21----29.99-0.03 72.9-----
0721 6:54 pm E 19 22----29.98- 73.0-----
0721 6:48 pm E 18 23----29.98- 73.2-----
0721 6:42 pmENE 21 24----29.98- 73.2-----
0721 6:36 pm E 23 25----29.98- 73.4-----
0721 6:30 pmENE 21 25----29.98- 73.2-----
0721 6:24 pmENE 22 24----29.99- 73.6-----
0721 6:18 pmENE 18 20----29.99- 73.4-----
0721 6:12 pm E 15 19----29.99- 73.2-----
0721 6:06 pm E 16 18----29.99- 73.4-----
0721 6:00 pm E 15 20----29.99-0.05 73.4-----
0721 5:54 pm E 18 22----29.99- 73.4-----

Description of Measurements

Links which are specific to this station are listed below:

Real Time Data in tabular form for the last forty-five days.

Historical Data & Climatic Summaries for quality controlled data for the current month, previous months, and previous years.